Regional Weather Roundup
Issued by NWS

Home | Current Version | Previous Version | Graphics & Text | Print | Product List | Glossary On
Versions: 1 2 3 4 5 6 7 8 9 10 11 12 13 14 15 16 17 18 19 20 21 22 23 24 25 26 27 28 29 30 31 32 33 34 35 36 37 38 39 40 41 42 43 44 45 46 47 48 49 50
001
ASUS43 KDTX 241201
RWRMI
MICHIGAN HOURLY REGIONAL WEATHER ROUNDUP
NATIONAL WEATHER SERVICE DETROIT/PONTIAC MI
800 AM EDT SUN JUL 24 2016

NOTE: "FAIR" INDICATES FEW OR NO CLOUDS BELOW 12,000 FEET WITH NO
SIGNIFICANT WEATHER AND/OR OBSTRUCTION TO VISIBILITY.

MIZ047>049-052>055-059>063-066>070-074>076-081>083-241300-
SOUTHEAST LOWER MICHIGAN

CITY           SKY/WX    TMP DP  RH WIND       PRES   REMARKS
ADRIAN         PTSUNNY   74  73  97 S5        29.95S
6HR MIN TEMP:  72; 6HR MAX TEMP:  77; 6HR PCP: TRACE;

ALMA           RAIN      73  71  92 W9        29.95R
ANN ARBOR      CLOUDY    76  70  82 SE6       29.95R
BAD AXE        CLOUDY    72  58  62 SE5       29.95S
CARO           PTSUNNY   73  61  67 CALM      29.93S
DETROIT CITY   CLOUDY    77  67  71 SE6       29.94F
6HR MIN TEMP:  74; 6HR MAX TEMP:  77;

DETROIT        LGT RAIN  79  68  69 S7        29.95R
6HR MIN TEMP:  75; 6HR MAX TEMP:  79; 6HR PCP: TRACE;

FLINT          CLOUDY    80  63  55 SW5       29.94R
6HR MIN TEMP:  75; 6HR MAX TEMP:  80;

GROSSE ILE     CLOUDY    79  69  71 S9        29.94R
6HR MIN TEMP:  74; 6HR MAX TEMP:  79;

HOWELL         CLOUDY    75  68  80 CALM      29.96R
6HR MIN TEMP:  74; 6HR MAX TEMP:  76;


CITY           SKY/WX    TMP DP  RH WIND       PRES   REMARKS
JACKSON        PTSUNNY   73  72  96 CALM      29.96R
6HR MIN TEMP:  72; 6HR MAX TEMP:  77; 6HR PCP:  0.06;

LAMBERTVILLE   CLOUDY    77  71  80 CALM      29.95S
6HR MIN TEMP:  74; 6HR MAX TEMP:  78;

LANSING        LGT RAIN  73  69  87 SW5       29.97R
6HR MIN TEMP:  72; 6HR MAX TEMP:  80; 6HR PCP:  0.01;

LAPEER         FAIR      76  62  61 S7        29.95R
6HR MIN TEMP:  66; 6HR MAX TEMP:  76;

MASON          RAIN      71  69  95 SE8       29.96R
MONROE         MOSUNNY   78  72  82 SW3       29.94S
6HR MIN TEMP:  77; 6HR MAX TEMP:  80;

PONTIAC        CLOUDY    77  64  64 S8        29.95R
6HR MIN TEMP:  70; 6HR MAX TEMP:  77;

PORT HOPE        N/A     75  60  59 S8        29.93S
6HR MIN TEMP:  70; 6HR MAX TEMP:  75;

PORT HURON     PTSUNNY   70  61  73 CALM      29.96F
TRI CITIES     CLOUDY    74  65  73 CALM      29.94R
6HR MIN TEMP:  72; 6HR MAX TEMP:  75; 6HR PCP: TRACE;

MIDLAND        CLOUDY    70  68  92 CALM      29.93R
6HR MIN TEMP:  70; 6HR MAX TEMP:  76;

TROY           CLOUDY    77  64  63 CALM      29.96S
SAGINAW HB     CLOUDY    72  63  73 CALM      29.93R
$$
MIZ043>046-050>051-056>058-064>065-071>073-077>080-241300-
SOUTHWEST LOWER MICHIGAN

CITY           SKY/WX    TMP DP  RH WIND       PRES   REMARKS
BATTLE CREEK   CLOUDY    70  70 100 S6        29.96R
6HR MIN TEMP:  70; 6HR MAX TEMP:  75; 6HR PCP:  0.62;

BENTON HARBOR  MOSUNNY   72  69  90 S8        29.93R
6HR MIN TEMP:  72; 6HR MAX TEMP:  74; 6HR PCP:  0.49;

BIG RAPIDS     RAIN      70  70 100 SW3       29.94S
6HR MIN TEMP:  70; 6HR MAX TEMP:  74; 6HR PCP:  0.19;

COLDWATER      LGT RAIN  72  72 100 SE3       29.96R
6HR MIN TEMP:  72; 6HR MAX TEMP:  75;

FREMONT        RAIN      70  70 100 MISG      29.92F
HOLLAND        CLOUDY    73  71  93 S6        29.92R
6HR MIN TEMP:  71; 6HR MAX TEMP:  73;

GRAND RAPIDS   TSTM      72  70  93 SE8       29.92F FOG
6HR MIN TEMP:  72; 6HR MAX TEMP:  75; 6HR PCP:  0.74;

IONIA          RAIN      71  69  93 SW6       29.94R
6HR MIN TEMP:  71; 6HR MAX TEMP:  76; 6HR PCP:  0.27;

KALAMAZOO      CLOUDY    74  71  91 S6        29.95R
6HR MIN TEMP:  72; 6HR MAX TEMP:  77; 6HR PCP:  0.47;

LUDINGTON      HVY RAIN  70  69  99 SE8       29.89F
6HR MIN TEMP:  69; 6HR MAX TEMP:  74; 6HR PCP:  0.46;

MARSHALL       CLOUDY    72  72 100 CALM      29.95R
MOUNT PLEASANT RAIN      73  70  91 SW3       29.94R
6HR MIN TEMP:  71; 6HR MAX TEMP:  77; 6HR PCP:  0.01;

MUSKEGON       TSTM      70  68  93 SE12      29.95F FOG
6HR MIN TEMP:  69; 6HR MAX TEMP:  73; 6HR PCP:  2.63;

SOUTH HAVEN    MOSUNNY   72  71  98 S6        29.93R
$$
MIZ016>042-241300-
NORTHERN LOWER MICHIGAN

CITY           SKY/WX    TMP DP  RH WIND       PRES   REMARKS
ALPENA         LGT RAIN  72  62  71 S10       29.93R
6HR MIN TEMP:  64; 6HR MAX TEMP:  73; 6HR PCP: TRACE;

BEAVER ISLAND  CLOUDY    69  68  97 CALM      29.87R
6HR MIN TEMP:  68; 6HR MAX TEMP:  73;

BELLAIRE       LGT RAIN  72  67  84 SW3       29.89S
6HR MIN TEMP:  72; 6HR MAX TEMP:  77;

CADILLAC       RAIN      69  67  93 S7        29.93F
CHARLEVOIX     CLOUDY    73  66  76 S3        29.91R
FRANKFORT      CLOUDY    71  68  89 S6        29.87S
GAYLORD        CLOUDY    72  63  73 S9        29.92S
6HR MIN TEMP:  71; 6HR MAX TEMP:  73; 6HR PCP: TRACE;

GRAYLING       LGT RAIN  72  67  85 S5        29.95R
6HR MIN TEMP:  71; 6HR MAX TEMP:  74;

HARBOR SPRINGS CLOUDY    71  68  91 CALM      29.88S
HOUGHTON LAKE  LGT RAIN  72  66  81 S6        29.96R
6HR MIN TEMP:  71; 6HR MAX TEMP:  74; 6HR PCP: TRACE;

MANISTEE       LGT RAIN  70  69  97 VRB6      29.87F
OSCODA         CLOUDY    70  65  84 CALM      29.93S
6HR MIN TEMP:  64; 6HR MAX TEMP:  71;

PELLSTON       CLOUDY    68  64  87 CALM      29.89S
6HR MIN TEMP:  67; 6HR MAX TEMP:  73; 6HR PCP:  0.01;

ROGERS CITY    LGT RAIN  67  61  81 S6        29.92F
TRAVERSE CITY  CLOUDY    72  69  90 VRB5      29.86F
6HR MIN TEMP:  72; 6HR MAX TEMP:  77; 6HR PCP:  0.05;

$$
MIZ007>008-015-241300-
EASTERN UPPER MICHIGAN

CITY           SKY/WX    TMP DP  RH WIND       PRES   REMARKS
KINROSS        RAIN      65  63  93 E10       29.90F
6HR MIN TEMP:  65; 6HR MAX TEMP:  72; 6HR PCP:  0.28;

MACKINAC ISLAN LGT RAIN  65  65 100 E3        29.89F
6HR MIN TEMP:  65; 6HR MAX TEMP:  75; 6HR PCP:  0.22;

NEWBERRY       CLOUDY    65  64  97 E5        29.86F FOG
6HR MIN TEMP:  65; 6HR MAX TEMP:  71; 6HR PCP:  0.43;

S. S. MARIE    RAIN      66  64  93 E5        29.91F FOG
6HR MIN TEMP:  66; 6HR MAX TEMP:  70; 6HR PCP:  0.20;

MUNISING         N/A     68  66  93 S9        29.81R
6HR MIN TEMP:  66; 6HR MAX TEMP:  73; 6HR PCP:  0.30;

$$
MIZ004>006-011>014-085-241300-
CENTRAL UPPER MICHIGAN

CITY           SKY/WX    TMP DP  RH WIND       PRES   REMARKS
MANISTIQUE     CLOUDY    69  68  97 SE8       29.85R
6HR MIN TEMP:  66; 6HR MAX TEMP:  72; 6HR PCP:  0.25;

ESCANABA       CLOUDY    72  70  94 S8        29.82S
6HR MIN TEMP:  66; 6HR MAX TEMP:  72; 6HR PCP:  0.14;

MENOMINEE      CLOUDY    72  71  97 SW5       29.84R
6HR MIN TEMP:  72; 6HR MAX TEMP:  73;

SAWYER-GWINN   CLOUDY    66  64  94 S9        29.82S
$$
MIZ001>003-009>011-084-241300-
WESTERN UPPER MICHIGAN

CITY           SKY/WX    TMP DP  RH WIND       PRES   REMARKS
IRON MOUNTAIN  CLOUDY    70  68  93 CALM      29.83R FOG
6HR MIN TEMP:  68; 6HR MAX TEMP:  70; 6HR PCP:  0.09;

HOUGHTON       CLOUDY    66  64  93 E7        29.74F FOG
6HR MIN TEMP:  64; 6HR MAX TEMP:  66; 6HR PCP:  0.05;

COPPER HARBOR    N/A     67  66  97 SW9G22    29.74F
6HR MIN TEMP:  67; 6HR MAX TEMP:  70; 6HR PCP:  0.17;

IRONWOOD       CLOUDY    68  68 100 W10       29.75R
6HR MIN TEMP:  68; 6HR MAX TEMP:  72;

$$

ABBREVIATIONS USED IN REMARKS
   TC - TEMPERATURE IN CELSIUS
  WCI - WIND CHILL INDEX
   HX - HEAT INDEX
  VSB - VISIBILITY





USA.gov is the U.S. government's official web portal to all federal, state and local government web resources and services.